User: anonymous   Login
Location: Perryvale
(54.4667°N, 113.3833°W)
Time: 03:52:57
(UTC+00:00)
Language:

A-11 Canister half - Orbit

View from above orbital plane
View from above orbital plane
View from above satellite
View from above satellite

Ground track
Ground track

The orbit data is extracted from the following two-line orbital elements,

1 00051U 60009C   24141.31787453 -.00000036  00000-0  48026-3 0  9994
2 00051  47.2116 234.3888 0107274 103.8584 257.4165 12.18327599838775
Epoch (UTC): 20 May 2024 07:37:44
Eccentricity: 0.0107274
inclination: 47.2116°
perigee height: 1514 km
apogee height: 1685 km
right ascension of ascending node: 234.3888°
argument of perigee: 103.8584°
revolutions per day: 12.18327599
mean anomaly at epoch: 257.4165°
orbit number at epoch: 83877

The dashed part of the orbit path shows where the satellite is in the earth's shadow,  

DLR